NV6B Weather Reports


Display with metric or nautical units.
time (UTC)temp
F
wind
direction
speed
MPH
gust
MPH
rain 1hr
in
rain 24hr
in
rain mn
in
humidity
%
barometer
mb
20260901131501 64 171 3.0 10.0 0.00 0.00 0.00 46 1009.0
20260901130501 64 158 2.0 10.0 0.00 0.00 0.00 45 1009.0
20260901125500 64 143 9.0 10.0 0.00 0.00 0.00 45 1009.0
20260901124500 64 167 1.0 9.0 0.00 0.00 0.00 45 1009.0
20260901123500 64 142 4.0 8.0 0.00 0.00 0.00 44 1008.8
20260901122500 64 153 7.0 8.0 0.00 0.00 0.00 44 1008.8
20260901121500 64 150 2.0 14.0 0.00 0.00 0.00 43 1008.8
20260901120500 63 125 1.0 9.0 0.00 0.00 0.00 44 1008.9
20260901115520 62 187 3.0 6.0 0.00 0.00 0.00 46 1008.9
20260901114500 62 203 1.0 6.0 0.00 0.00 0.00 47 1008.7
20260901113500 61 207 3.0 6.0 0.00 0.00 0.00 46 1008.8
20260901112500 62 131 0.0 0.0 0.00 0.00 0.00 44 1008.6
20260901083518 64 123 2.0 5.0 0.00 0.00 0.00 31 1008.7
20260901082458 64 95 3.0 9.0 0.00 0.00 0.00 31 1008.8
20260901081458 64 127 4.0 7.0 0.00 0.00 0.00 30 1009.0
20260901080458 64 116 2.0 6.0 0.00 0.00 0.00 29 1009.1
20260901075458 64 113 2.0 10.0 0.00 0.00 0.00 28 1009.2
20260901074458 63 120 1.0 7.0 0.00 0.00 0.00 29 1009.3
20260901045516 64 2 0.0 0.0 0.00 0.00 0.00 44 1010.1
20260901044456 65 2 0.0 0.0 0.00 0.00 0.00 43 1010.1
20260901043516 65 2 0.0 0.0 0.00 0.00 0.00 38 1009.9
20260901042456 65 2 0.0 0.0 0.00 0.00 0.00 38 1009.9
20260901041516 66 2 0.0 0.0 0.00 0.00 0.00 36 1009.7
20260901040456 67 2 0.0 0.0 0.00 0.00 0.00 35 1009.8
20260901014515 80 2 0.0 0.0 0.00 0.00 0.00 22 1010.1
20260901013455 81 2 0.0 0.0 0.00 0.00 0.00 19 1010.1
20260901012454 82 2 0.0 1.0 0.00 0.00 0.00 18 1010.2
20260901011454 82 2 0.0 4.0 0.00 0.00 0.00 18 1010.1
20260901010454 82 2 1.0 4.0 0.00 0.00 0.00 16 1010.3
20260831200511 83 73 3.0 5.0 0.00 0.00 0.00 15 1015.5
20260831195451 82 86 3.0 6.0 0.00 0.00 0.00 16 1015.7
20260831194451 79 123 3.0 4.0 0.00 0.00 0.00 16 1015.9
20260831193451 81 59 3.0 4.0 0.00 0.00 0.00 16 1016.1
20260831192451 80 115 1.0 7.0 0.00 0.00 0.00 15 1016.3
20260831191451 79 52 3.0 6.0 0.00 0.00 0.00 19 1016.5
20260831162449 65 95 2.0 4.0 0.00 0.00 0.00 27 1018.5
20260831161449 63 177 2.0 5.0 0.00 0.00 0.00 30 1018.6
20260831160449 62 144 4.0 4.0 0.00 0.00 0.00 33 1018.6
20260831155449 60 174 3.0 3.0 0.00 0.00 0.00 35 1018.8
20260831154449 60 174 3.0 5.0 0.00 0.00 0.00 36 1018.9
20260831153450 60 121 2.0 5.0 0.00 0.00 0.00 37 1018.9